x

8413320 - Bar Harbor, Me (atgm1) Weather Station

8:18 - Sun 11th Dec 2016 All times are EST. -5 hours from GMT.

  • Wind
    8mph, 13mph gusts
  • Sea Temp 40°f
  • Air Temp 19°f
  • Sea Pressure 1030.9mb
  • 8413320 - Bar Harbor, Me
  • 8413320 - Bar Harbor, Me

More Historic Weather Station data

Upgrade to MSW Pro to gain access to the past 30 days of data for over 8000 Wavebouys and Weather Stations around the globe.

Join Pro

Comparision Forecast

View Surf forecast
   
dim. 12/11 8:18 8 13 mph 1030.9mb 40f 19f
8:12 7 13 mph 1030.8mb 41f 19f
8:06 9 13 mph 1030.7mb 41f 19f
8:00 9 14 mph 1030.7mb 41f 19f
7:54 10 14 mph 1030.7mb 41f 19f
7:48 10 14 mph 1030.7mb 41f 19f
7:42 7 11 mph 1030.7mb 41f 19f
7:36 9 13 mph 1030.7mb 42f 19f
7:30 9 13 mph 1030.6mb 42f 18f
7:24 9 11 mph 1030.5mb 42f 18f
7:18 8 11 mph 1030.5mb 43f 18f
7:12 8 11 mph 1030.3mb 43f 18f
7:06 8 14 mph 1030.2mb 43f 18f
7:00 9 14 mph 1030mb 43f 18f
6:54 9 13 mph 1029.9mb 43f 18f
6:48 8 10 mph 1029.8mb 42f 18f
6:42 7 13 mph 1029.8mb 42f 18f
6:36 9 14 mph 1029.8mb 41f 18f
6:30 11 15 mph 1029.7mb 41f 18f
6:24 10 15 mph 1029.6mb 41f 18f
6:18 9 15 mph 1029.6mb 42f 18f
6:12 8 13 mph 1029.5mb 41f 18f
6:06 8 14 mph 1029.5mb 41f 18f
6:00 9 13 mph 1029.5mb 41f 18f
5:54 10 15 mph 1029.4mb 41f 18f
5:48 7 10 mph 1029.3mb 41f 18f
5:42 8 13 mph 1029.3mb 41f 18f
5:36 8 14 mph 1029.3mb 41f 17f
5:30 9 14 mph 1029.2mb 40f 17f
5:24 9 14 mph 1029.2mb 40f 17f
5:18 8 14 mph 1029.1mb 40f 17f
5:12 11 16 mph 1028.9mb 40f 17f
5:06 9 13 mph 1028.9mb 40f 17f
5:00 9 14 mph 1028.8mb 40f 17f
4:54 8 13 mph 1028.7mb 40f 17f
4:48 7 14 mph 1028.6mb 41f 17f
4:42 7 13 mph 1028.6mb 40f 17f
4:36 9 14 mph 1028.5mb 41f 17f
4:30 9 14 mph 1028.5mb 41f 17f
4:24 10 14 mph 1028.4mb 41f 16f
4:18 10 14 mph 1028.5mb 41f 16f
4:12 9 14 mph 1028.5mb 41f 16f
4:06 9 13 mph 1028.5mb 41f 16f
4:00 8 11 mph 1028.4mb 41f 16f
3:54 7 13 mph 1028.4mb 41f 16f
3:48 8 14 mph 1028.3mb 41f 17f
3:42 7 11 mph 1028.2mb 41f 17f
3:36 7 11 mph 1028.2mb 41f 17f
3:30 6 11 mph 1028.2mb 41f 17f
3:24 6 10 mph 1028.1mb 41f 17f
3:18 6 10 mph 1028.1mb 41f 17f
3:12 6 9 mph 1028.1mb 41f 17f
3:06 6 9 mph 1028.1mb 41f 17f
3:00 8 11 mph 1027.9mb 41f 17f
2:54 7 11 mph 1027.9mb 41f 17f
2:48 7 13 mph 1027.8mb 41f 17f
2:42 8 13 mph 1027.9mb 41f 17f
2:36 7 11 mph 1027.9mb 41f 17f
2:30 6 10 mph 1027.8mb 41f 17f
2:24 9 10 mph 1027.8mb 41f 17f
2:18 7 11 mph 1027.7mb 41f 17f
2:12 7 13 mph 1027.7mb 41f 17f
2:06 7 10 mph 1027.8mb 41f 17f
2:00 8 11 mph 1027.8mb 41f 17f
1:54 7 11 mph 1027.8mb 41f 17f
1:48 8 11 mph 1027.7mb 41f -
1:42 9 14 mph 1027.6mb 41f -
1:36 11 14 mph 1027.4mb 41f -
1:30 11 14 mph 1027.4mb 41f 17f
1:24 9 14 mph 1027.3mb 40f 17f
1:18 8 13 mph 1027.3mb 40f 17f
1:12 8 10 mph 1027.4mb 40f 17f
1:06 6 13 mph 1027.3mb 40f 17f
1:00 9 14 mph 1027.3mb 40f 17f
12:54 9 14 mph 1027.2mb 40f 17f
12:48 8 15 mph 1027.2mb 40f 17f
12:42 8 13 mph 1027.2mb 40f 17f
12:36 7 13 mph 1027.2mb 40f 17f
12:30 10 14 mph 1027.1mb 40f 17f
12:24 9 14 mph 1027.1mb 41f 17f
12:18 9 16 mph 1027mb 41f 17f
12:12 11 15 mph 1026.8mb 41f 18f
12:06 14 17 mph 1026.8mb 41f 18f
12:00 10 16 mph 1026.7mb 41f 18f
sam. 12/10 11:54 13 18 mph 1026.6mb 41f 18f
11:48 14 20 mph 1026.6mb 41f 18f
11:42 15 20 mph 1026.5mb 41f 19f
11:36 16 18 mph 1026.5mb 41f 19f
11:30 15 20 mph 1026.5mb 41f 18f
11:24 14 18 mph 1026.5mb 41f 18f
11:18 14 20 mph 1026.5mb 41f 19f
11:12 15 18 mph 1026.5mb 41f 19f
11:06 15 18 mph 1026.5mb 41f 18f
11:00 14 18 mph 1026.5mb 41f 18f
10:54 14 20 mph 1026.5mb 41f 18f
10:48 16 21 mph 1026.4mb 41f 18f
10:42 16 21 mph 1026.3mb 41f 19f
10:36 18 22 mph 1026.2mb 41f 19f
10:30  -  mph 1026.1mb 41f 19f
10:24  -  mph 1026mb 41f 19f
10:18 18 23 mph 1025.8mb 41f 19f
10:12 17 21 mph 1025.8mb 41f 19f
10:06 18 22 mph 1025.8mb 41f 19f
10:00 15 22 mph 1025.7mb 41f 19f
9:54 16 21 mph 1025.6mb 41f 19f
9:48 16 18 mph 1025.5mb 41f 19f
9:42 15 22 mph 1025.5mb 41f 19f
9:36 16 22 mph 1025.4mb 41f 19f
9:30 16 22 mph 1025.3mb 41f 19f
9:24 15 25 mph 1025.3mb 41f 19f
9:18 16 22 mph 1025.3mb 41f 19f
9:12 16 22 mph 1025.2mb 41f 19f
9:06 17 22 mph 1025.2mb 41f 19f
9:00 15 21 mph 1025.2mb 41f 19f
8:54 16 22 mph 1025.2mb 41f 19f
8:48 17 21 mph 1025.1mb 41f 20f
8:42 17 22 mph 1025.1mb 41f 19f
8:36 17 22 mph 1025mb 41f 19f
8:30 16 22 mph 1025mb 41f 19f
8:24 18 23 mph 1024.9mb 41f 20f
8:18 17 22 mph 1024.8mb 41f 19f
8:12 17 21 mph 1024.8mb 41f 19f
8:06 20 23 mph 1024.8mb 41f 19f
8:00 17 23 mph 1024.7mb 40f 19f
7:54 17 22 mph 1024.6mb 40f 20f
7:48 17 22 mph 1024.5mb 40f 20f
7:42 16 22 mph 1024.5mb 40f 20f
7:36 14 18 mph 1024.5mb 41f 19f
7:30 14 20 mph 1024.5mb 41f 20f
7:24 16 20 mph 1024.4mb 41f 19f
7:18 15 18 mph 1024.4mb 40f 20f
7:12 13 17 mph 1024.5mb 40f 19f
7:06 14 23 mph 1024.4mb 40f 20f
7:00 18 24 mph 1024.3mb 40f 20f
6:54 18 24 mph 1024.4mb 40f 20f
6:48 18 23 mph 1024.4mb 41f 20f
6:42 16 21 mph 1024.3mb 41f 20f
6:36 17 25 mph 1024.3mb 41f 20f
6:30 20 25 mph 1024.1mb 42f 21f
6:24 18 23 mph 1023.9mb 42f 20f
6:18 16 23 mph 1024mb 42f 20f
6:12 17 23 mph 1023.8mb 42f 20f
6:06 20 23 mph 1023.7mb 42f 20f
6:00 18 24 mph 1023.5mb 41f 20f
5:54 20 23 mph 1023.4mb 41f 20f
5:48 21 26 mph 1023.3mb 42f 20f
5:42 22 28 mph 1023.2mb 43f 20f
5:36 24 29 mph 1023mb 43f 21f
5:30 22 26 mph 1023mb 43f 21f
5:24 20 24 mph 1023mb 43f 21f
5:18 22 26 mph 1022.9mb 43f 20f
5:12 21 25 mph 1022.8mb 43f 21f
5:06 18 24 mph 1022.7mb 43f 21f
5:00 21 23 mph 1022.6mb 43f 21f
4:54 16 23 mph 1022.6mb 43f 21f
4:48 21 23 mph 1022.5mb 43f 21f
4:42 20 25 mph 1022.4mb 43f 21f
4:36 18 23 mph 1022.2mb 42f 21f
4:30 17 22 mph 1022.1mb 42f 21f
4:24 14 20 mph 1022.1mb 42f 20f
4:18 16 21 mph 1021.9mb 41f 21f
4:12 17 22 mph 1021.7mb 41f 21f
4:06 17 23 mph 1021.7mb 42f 21f
4:00 20 23 mph 1021.6mb 42f 21f
3:54 20 24 mph 1021.5mb 42f 21f
3:48 18 24 mph 1021.4mb 42f 21f
3:42 20 25 mph 1021.4mb 42f 21f
3:36 21 25 mph 1021.3mb 42f 21f
3:30 22 28 mph 1021.2mb 42f 21f
3:24 21 24 mph 1021.2mb 42f 21f
3:18 21 25 mph 1021.1mb 42f 21f
3:12 21 29 mph 1020.8mb 42f 21f
3:06 22 25 mph 1020.8mb 42f 21f
3:00 20 26 mph 1020.8mb 42f 21f
2:54 22 28 mph 1020.6mb 42f 21f
2:48 15 22 mph 1020.8mb 42f 21f
2:42 17 21 mph 1020.6mb 42f 21f
2:36 15 24 mph 1020.7mb 42f 21f
2:30 22 24 mph 1020.5mb 42f 21f
2:24 20 24 mph 1020.5mb 42f 20f
2:18 17 22 mph 1020.5mb 42f 21f
2:12 17 22 mph 1020.4mb 42f 21f
2:06 17 23 mph 1020.3mb 41f 20f
2:00 16 22 mph 1020.3mb 41f 20f
1:54 20 22 mph 1020.2mb 41f 20f
1:48 17 25 mph 1020.1mb 41f 20f
1:42 20 24 mph 1020mb 41f 20f
1:36 18 28 mph 1020mb 41f 20f
1:30 17 25 mph 1019.9mb 41f 20f
1:24 23 29 mph 1019.8mb 41f 20f
1:18 17 23 mph 1020mb 41f 20f
1:12 14 23 mph 1020mb 41f 20f
1:06 16 25 mph 1019.9mb 41f 19f
1:00 17 22 mph 1020mb 41f 19f
12:54 17 23 mph 1020mb 41f 19f
12:48 17 21 mph 1019.9mb 41f 19f
12:42 14 22 mph 1020mb 41f 19f
12:36 18 24 mph 1020mb 41f 19f
12:30 16 21 mph 1020mb 41f 19f
12:24 17 24 mph 1020mb 41f 19f
12:18 18 25 mph 1020mb 41f 18f
12:12 21 25 mph 1020mb 41f 18f
12:06 16 24 mph 1020.2mb 41f 18f
12:00 21 24 mph 1020.1mb 41f 18f
11:54 16 23 mph 1020.2mb 41f 18f
11:48 17 23 mph 1020.4mb 41f 17f
11:42 17 24 mph 1020.4mb 41f 18f
11:36 15 21 mph 1020.5mb 41f 17f
11:30 20 23 mph 1020.5mb 41f 17f
11:24 17 24 mph 1020.6mb 41f 17f
11:18 16 18 mph 1020.6mb 41f 18f
11:12 15 22 mph 1020.7mb 41f 17f
11:06 14 20 mph 1020.9mb 41f 17f
11:00 16 22 mph 1020.9mb 41f 17f
10:54 16 23 mph 1021.1mb 41f 17f
10:48 17 22 mph 1021.2mb 41f 17f
10:42 15 20 mph 1021.2mb 41f 17f
10:36 13 21 mph 1021.3mb 41f 17f
10:30 21 23 mph 1021.2mb 41f 16f
10:24 15 18 mph 1021.4mb 41f 16f
10:18 13 21 mph 1021.4mb 41f 17f
10:12 16 20 mph 1021.4mb 41f 17f
10:06 15 22 mph 1021.6mb 41f 16f
10:00 17 22 mph 1021.5mb 41f 17f
9:54 14 17 mph 1021.6mb 41f 17f
9:48 14 20 mph 1021.6mb 41f 17f
9:42 17 22 mph 1021.6mb 41f 16f
9:36 16 22 mph 1021.7mb 41f 17f
9:30 17 20 mph 1021.6mb 41f 17f
9:24 16 20 mph 1021.6mb 41f 16f
9:18 14 24 mph 1021.6mb 41f 16f
9:12 16 26 mph 1021.6mb 41f 16f
9:06 15 21 mph 1021.5mb 41f 16f
9:00 18 22 mph 1021.5mb 41f 16f
8:54 14 21 mph 1021.3mb 41f 16f
8:48 18 21 mph 1021.2mb 41f 16f
8:42 14 18 mph 1021.2mb 41f 16f
8:36 16 24 mph 1021.2mb 41f 16f
8:30 17 22 mph 1021mb 41f 16f
8:24 15 23 mph 1021mb 41f 16f
8:18 17 24 mph 1020.9mb 41f 15f
8:12 14 18 mph 1021mb 41f 15f
8:06 15 22 mph 1020.9mb 41f 15f
8:00 14 18 mph 1020.9mb 41f 16f
7:54 11 17 mph 1021.1mb 41f 15f
7:48 13 20 mph 1021.1mb 41f 15f
7:42 14 21 mph 1021mb 41f 16f
7:36 9 14 mph 1021mb 41f 15f
7:30 11 17 mph 1020.9mb 41f 16f
7:24 14 20 mph 1020.8mb 41f 16f
7:18 15 18 mph 1020.7mb 41f 16f
7:12 15 20 mph 1020.6mb 41f 15f
7:06 16 20 mph 1020.3mb 41f 16f
7:00 15 20 mph 1020.4mb 41f 16f
6:54 15 21 mph 1020.4mb 41f 15f
6:48 17 20 mph 1020.5mb 41f 15f
6:42 15 21 mph 1020.5mb 41f 15f
6:36 15 21 mph 1020.4mb 42f 15f
6:30 21 24 mph 1020.3mb 42f 15f
6:24 17 25 mph 1020.2mb 42f 16f
6:18 16 22 mph 1020.1mb 42f 16f
6:12 16 20 mph 1020.1mb 42f 16f
6:06 16 22 mph 1020mb 42f 16f
6:00 20 23 mph 1019.8mb 42f 16f
5:54 17 22 mph 1019.6mb 42f 16f
5:48 20 22 mph 1019.5mb 42f 16f
5:42 17 21 mph 1019.4mb 42f 16f
5:36 18 23 mph 1019.2mb 42f 16f
5:30 20 24 mph 1019mb 41f 16f
5:24 20 24 mph 1019mb 41f 16f
5:18 21 26 mph 1018.9mb 41f 16f
5:12 23 28 mph 1018.7mb 41f 16f
5:06 21 26 mph 1018.6mb 41f 16f
5:00 21 24 mph 1018.6mb 41f 16f
4:54 20 25 mph 1018.7mb 41f 16f
4:48 23 28 mph 1018.6mb 41f 16f
4:42 23 32 mph 1018.2mb 41f 16f
4:36 22 30 mph 1018mb 41f 17f
4:30 22 30 mph 1017.9mb 42f 17f
4:24 23 28 mph 1017.9mb 42f 16f
4:18 23 30 mph 1017.7mb 42f 16f
4:12 25 34 mph 1017.4mb 42f 16f
4:06 23 29 mph 1017.4mb 42f 17f
4:00 22 31 mph 1017.5mb 41f 17f
3:54 21 26 mph 1017.6mb 42f 17f
3:48 22 29 mph 1017.7mb 42f 17f
3:42 23 29 mph 1017.5mb 42f 17f
3:36 26 32 mph 1017.5mb 42f 17f
3:30 25 33 mph 1017.6mb 42f 17f
3:24 29 38 mph 1017.5mb 42f 17f
3:18 28 37 mph 1017.6mb 42f 17f
3:12 26 32 mph 1017.8mb 42f 17f
3:06 30 33 mph 1017.4mb 42f 18f
3:00 26 33 mph 1017.3mb 43f 19f
2:54 29 37 mph 1017.1mb 43f 19f
2:48 28 34 mph 1017mb 43f 19f
2:42 25 32 mph 1017.1mb 43f 19f
2:36 24 34 mph 1017.4mb 43f 19f
2:30 28 34 mph 1017mb 43f 20f
2:24 26 33 mph 1016.9mb 43f 20f
2:18 23 29 mph 1017.1mb 42f 20f
2:12 21 28 mph 1017.1mb 42f 20f
2:06 22 29 mph 1017.3mb 43f 21f
2:00 20 24 mph 1017.1mb 42f 21f
1:54 21 25 mph 1017mb 42f 21f
1:48 18 22 mph 1017mb 42f 21f
1:42 16 20 mph 1016.9mb 42f 21f
1:36 16 21 mph 1016.6mb 42f 21f
1:30 14 21 mph 1016.5mb 42f 22f
1:24 17 22 mph 1016.3mb 42f 22f
1:18 17 22 mph 1016.2mb 42f 22f
1:12 18 24 mph 1016.1mb 42f 22f
1:06 17 21 mph 1016.1mb 42f 22f
1:00 17 22 mph 1015.9mb 42f 22f
12:54 15 23 mph 1015.9mb 42f 22f
12:48 18 23 mph 1015.8mb - -
12:42 17 22 mph 1015.8mb - -
12:36 17 21 mph 1015.8mb - -
12:30 15 18 mph 1015.8mb 42f 22f
12:24 15 21 mph 1015.8mb 42f 22f
12:18 14 18 mph 1015.9mb 42f 22f
12:12 11 17 mph 1015.9mb 42f 22f
12:06 13 18 mph 1015.9mb 42f 22f
12:00 14 22 mph 1015.7mb 42f 23f
ven. 12/09 11:54 15 18 mph 1015.6mb 42f 23f
11:48 14 20 mph 1015.5mb 42f 23f
11:42 17 20 mph 1015.3mb 42f 23f
11:36 16 18 mph 1015.2mb 42f 23f
11:30 13 18 mph 1015.3mb 42f 23f
11:24 15 18 mph 1015.4mb 42f 23f
11:18 17 24 mph 1015.4mb 42f 23f
11:12 18 22 mph 1015.2mb 42f 23f
11:06 17 23 mph 1015.2mb 42f 24f
11:00 18 22 mph 1015.2mb 42f 23f
10:54 16 20 mph 1015.2mb 42f 24f
10:48 14 21 mph 1015.2mb 42f 23f
10:42 15 20 mph 1015.3mb 43f 23f
10:36 13 20 mph 1015.3mb 43f 24f
10:30 15 22 mph 1015.2mb 43f 24f
10:24 17 22 mph 1015.1mb 43f 24f
10:18 16 21 mph 1015mb 43f 24f
10:12 17 22 mph 1014.9mb 43f 24f
10:06 16 21 mph 1014.8mb 43f 24f
10:00 15 18 mph 1014.8mb 43f 24f
9:54 15 22 mph 1014.7mb 43f 24f
9:48 16 20 mph 1014.6mb 43f 24f
9:42 14 21 mph 1014.6mb 43f 24f
9:36 16 22 mph 1014.5mb 43f 24f
9:30 15 22 mph 1014.4mb 43f 25f
9:24 18 23 mph 1014.4mb 43f 25f
9:18 16 25 mph 1014.4mb 43f 25f
9:12 17 23 mph 1014.3mb 43f 25f
9:06 21 28 mph 1014.3mb 43f 25f
9:00 22 28 mph 1014.2mb 43f 25f
8:54 23 30 mph 1014.1mb 43f 25f
8:48 23 28 mph 1014mb 43f 25f
8:42 23 32 mph 1013.8mb 43f 25f
8:36 23 29 mph 1013.7mb 43f 26f
8:30 28 30 mph 1013.6mb 43f 25f
8:24 24 30 mph 1013.7mb 43f 26f
8:18 23 32 mph 1013.6mb 43f 26f
8:12 24 30 mph 1013.6mb 43f 26f
8:06 22 30 mph 1013.4mb 43f 26f
8:00 22 29 mph 1013.3mb 43f 26f
7:54 24 29 mph 1013.2mb 43f 26f
7:48 24 29 mph 1013.2mb 43f 26f
7:42 23 29 mph 1013.2mb 43f 26f
7:36 23 28 mph 1013.2mb 43f 26f
7:30 16 25 mph 1013.3mb 43f 26f
7:24 17 24 mph 1013.2mb 43f 26f
7:18 17 26 mph 1013.2mb 43f 26f
7:12 18 25 mph 1013.2mb 43f 26f
7:06 20 25 mph 1013.2mb 43f 26f
7:00 20 28 mph 1013.1mb 43f 26f
6:54 18 25 mph 1013.1mb 43f 26f
6:48 21 26 mph 1012.9mb 43f 26f
6:42 20 25 mph 1012.9mb 43f 26f
6:36 22 26 mph 1012.7mb 43f 27f
6:30 22 28 mph 1012.7mb 43f 27f
6:24 23 28 mph 1012.5mb 43f 27f
6:18 23 28 mph 1012.5mb 43f 28f
6:12 23 29 mph 1012.5mb 43f 27f
6:06 21 26 mph 1012.4mb 43f 27f
6:00 22 28 mph 1012.2mb 43f 28f
5:54 20 29 mph 1012.1mb 43f 28f
5:48 23 31 mph 1012mb 43f 28f
5:42 23 33 mph 1012mb 43f 28f
5:36 23 28 mph 1011.9mb 44f 28f
5:30 24 30 mph 1011.8mb 44f 28f
5:24 22 29 mph 1011.7mb 44f 28f
5:18 21 24 mph 1011.7mb 44f 28f
5:12 21 24 mph 1011.6mb 44f 29f
5:06 20 22 mph 1011.4mb 44f 29f
5:00 17 26 mph 1011.3mb 44f 29f
4:54 20 23 mph 1011.2mb 43f 28f
4:48 20 25 mph 1011.1mb 43f 28f
4:42 20 25 mph 1011mb 43f 29f
4:36 23 26 mph 1010.9mb 43f 29f
4:30 23 31 mph 1010.9mb 43f 29f
4:24 23 29 mph 1010.7mb 43f 29f
4:18 23 28 mph 1010.6mb 44f 28f
4:12 25 30 mph 1010.4mb 44f 29f
4:06 25 31 mph 1010.3mb 44f 29f
4:00 24 33 mph 1010.3mb 44f 28f
3:54 24 29 mph 1010mb 44f 29f
3:48 25 37 mph 1010.1mb 44f 28f
3:42 21 26 mph 1010mb 45f 29f
3:36 22 26 mph 1009.8mb 45f 28f
3:30 24 32 mph 1009.7mb 45f 28f
3:24 22 30 mph 1009.6mb 45f 29f
3:18 24 31 mph 1009.3mb 45f 29f
3:12 23 30 mph 1009.2mb 45f 29f
3:06 26 32 mph 1009mb 45f 30f
3:00 21 29 mph 1009mb 45f 29f
2:54 26 31 mph 1008.7mb 45f 29f
2:48 25 30 mph 1008.7mb 44f 30f
2:42 25 30 mph 1008.6mb 44f 30f
2:36 22 28 mph 1008.5mb 44f 29f
2:30 23 29 mph 1008.4mb 44f 29f
2:24 23 28 mph 1008.4mb 44f 29f
2:18 26 32 mph 1008.2mb 44f 29f
2:12 22 26 mph 1008mb 44f 29f
2:06 24 33 mph 1008mb 44f 29f
2:00 21 29 mph 1007.9mb 44f 30f
1:54 21 25 mph 1007.9mb 44f 30f
1:48 21 26 mph 1007.8mb 44f 30f
1:42 20 26 mph 1007.9mb 44f 30f
1:36 26 31 mph 1007.6mb 44f 29f
1:30 17 25 mph 1007.8mb 44f 29f
1:24 18 24 mph 1007.7mb 44f 29f
1:18 23 29 mph 1007.6mb 44f 29f
1:12 20 29 mph 1007.5mb 44f 29f
1:06 26 36 mph 1007.1mb 44f 29f
1:00 26 32 mph 1007.1mb 44f 30f
12:54 26 33 mph 1006.9mb 44f 30f
12:48 25 33 mph 1006.9mb 44f 30f
12:36 24 30 mph 1006.9mb 44f 30f
12:30 26 31 mph 1006.7mb 44f 29f
12:24 23 31 mph 1006.8mb 44f 29f
12:18 24 32 mph 1006.8mb 44f 29f
12:12 24 31 mph 1006.8mb 44f 29f
12:06 22 30 mph 1006.8mb 44f 29f
12:00 24 36 mph 1006.9mb 44f 29f
11:54 30 38 mph 1006.8mb 44f 29f
11:48 23 29 mph 1007mb 44f 29f
11:42 21 26 mph 1007.1mb 44f 29f
11:36 18 28 mph 1007.2mb 44f 30f
11:30 25 31 mph 1007.1mb 44f 29f
11:24 23 31 mph 1007.1mb 44f 29f
11:18 22 31 mph 1007.1mb 44f 30f
11:12 22 29 mph 1006.9mb 44f 30f
11:06 24 32 mph 1007mb 44f 30f
11:00 23 28 mph 1006.9mb 44f 30f
10:54 24 30 mph 1007mb 44f 30f
10:48 21 31 mph 1007.1mb 44f 30f
10:42 24 29 mph 1007mb 44f 30f
10:36 21 34 mph 1007.1mb 44f 30f
10:30 23 32 mph 1007.1mb 44f 30f
10:24 18 28 mph 1007.2mb 45f 30f
10:18 18 26 mph 1007.4mb 44f 30f
10:12 14 25 mph 1007.4mb 44f 30f
10:06 22 38 mph 1007.3mb 44f 30f
10:00 31 38 mph 1006.9mb 44f 30f
9:54 28 33 mph 1007mb 44f 30f
9:48 24 30 mph 1007.1mb 44f 30f
9:42 23 31 mph 1007.2mb 44f 30f
9:30 21 26 mph 1007.2mb 44f 30f
9:24 22 29 mph 1007.1mb 44f 30f
9:18 20 26 mph 1007.1mb 44f 30f
9:12 20 24 mph 1007.2mb 45f 30f
9:06 20 25 mph 1007.2mb 45f 30f
9:00 20 24 mph 1007.1mb 45f 30f
8:54 17 21 mph 1007.1mb 45f 30f
8:48 22 29 mph 1007mb 45f 30f
8:42 17 21 mph 1006.9mb 45f 30f
8:36 17 22 mph 1006.9mb 45f 30f
8:30 17 26 mph 1006.8mb 45f 30f
8:24 18 26 mph 1006.7mb 45f 30f
8:18 20 26 mph 1006.5mb 45f 30f
8:12 20 28 mph 1006.4mb 45f 30f
8:06 16 23 mph 1006.4mb 45f 30f
8:00 21 29 mph 1006.2mb 45f 30f
7:54 18 23 mph 1006.2mb 45f 30f
7:48 20 25 mph 1006.2mb 45f 30f
7:42 20 25 mph 1006.1mb 45f 30f
7:36 18 24 mph 1006.1mb 45f 30f
7:30 17 23 mph 1005.9mb 45f 30f
7:24 22 26 mph 1005.7mb 45f 30f
7:18 20 23 mph 1005.6mb 45f 30f
7:12 20 25 mph 1005.5mb 45f 31f
7:06 17 25 mph 1005.5mb 45f 30f
6:54 17 24 mph 1005.3mb 44f 30f
6:48 16 20 mph 1005.4mb 44f 30f
6:42 17 22 mph 1005.3mb 44f 30f
6:36 17 20 mph 1005.2mb 45f 30f
6:30 15 23 mph 1005.2mb 45f 30f
6:24 20 26 mph 1005.2mb 45f 30f
6:18 22 28 mph 1005mb 45f 30f
6:12 21 28 mph 1004.9mb 45f 31f
6:06 21 28 mph 1004.8mb 45f 32f
6:00 23 30 mph 1004.5mb 45f 32f
5:54 26 30 mph 1004.3mb 45f 32f
5:48 22 31 mph 1004.2mb 45f 33f
5:42 18 29 mph 1004.1mb 45f 33f
5:36 14 22 mph 1004mb 45f 33f
5:30 10 16 mph 1004mb 45f 33f
5:24 15 21 mph 1003.9mb 45f 33f
5:18 13 18 mph 1003.8mb 45f 33f
5:12 13 18 mph 1003.6mb 45f 33f
5:06 14 17 mph 1003.6mb 45f 33f
5:00 14 22 mph 1003.6mb 45f 33f
4:54 11 17 mph 1003.5mb 45f 32f
4:48 11 20 mph 1003.5mb 45f 32f
4:42 13 20 mph 1003.4mb 45f 32f
4:36 11 20 mph 1003.4mb 45f 32f
4:30 14 21 mph 1003.4mb 45f 32f
4:24 11 18 mph 1003.3mb 45f 32f
4:18 13 18 mph 1003.3mb 45f 32f
4:12 14 18 mph 1003.2mb 46f 32f
4:06 15 20 mph 1003.3mb 46f 32f
4:00 11 21 mph 1003.4mb 46f 32f
3:54 13 20 mph 1003.4mb 46f 32f
3:48 11 20 mph 1003.4mb 46f 32f
3:42 11 17 mph 1003.4mb 46f 32f
3:36 14 18 mph 1003.4mb 46f 32f
3:30 10 16 mph 1003.3mb 46f 32f
3:24 11 18 mph 1003.4mb 46f 32f
3:18 13 20 mph 1003.4mb 46f 32f
3:12 10 17 mph 1003.4mb 46f 32f
3:06 11 17 mph 1003.4mb 46f 33f
3:00 10 16 mph 1003.4mb 46f 32f
2:54 11 18 mph 1003.4mb 46f 33f
2:48 9 20 mph 1003.4mb 46f 33f
2:42 10 17 mph 1003.4mb 46f 33f
2:36 14 20 mph 1003.3mb 46f 33f
2:30 13 16 mph 1003.3mb 46f 33f
2:24 14 22 mph 1003.3mb 46f 33f
2:18 14 18 mph 1003.3mb 46f 33f
2:12 13 16 mph 1003.3mb 46f 33f
2:06 13 20 mph 1003.2mb 46f 33f
2:00 13 22 mph 1003.3mb 46f 33f
1:54 15 20 mph 1003.3mb 46f 33f
1:48 13 23 mph 1003.3mb 46f 33f
1:42 15 22 mph 1003.2mb 46f 33f
1:36 14 20 mph 1003.2mb 46f 33f
1:30 13 18 mph 1003.2mb 46f 33f
1:18 13 18 mph 1003.1mb 46f 33f
1:12 9 17 mph 1003.1mb 46f 33f
1:06 11 15 mph 1003.1mb 46f 33f
1:00 11 20 mph 1003.1mb 46f 33f
12:54 11 18 mph 1003mb 46f 33f
12:48 11 16 mph 1003mb - -
12:42 10 16 mph 1003.1mb - -
12:36 10 14 mph 1003.1mb - -
12:24 9 13 mph 1003.1mb 46f 33f
12:18 8 13 mph 1003.1mb 46f 33f
12:12 10 14 mph 1003.2mb 46f 33f
12:06 8 14 mph 1003.2mb 46f 33f
12:00 9 14 mph 1003.2mb 46f 33f
jeu. 12/08 11:54 11 16 mph 1003.2mb 46f 34f
11:48 9 17 mph 1003.2mb 46f 34f
11:42 11 17 mph 1003.3mb 46f 34f
11:36 10 14 mph 1003.4mb 46f 33f
11:30 11 16 mph 1003.5mb 46f 33f
11:24 9 15 mph 1003.5mb 46f 34f
11:18 11 15 mph 1003.6mb 46f 34f
11:12 10 17 mph 1003.6mb 46f 34f
11:06 9 15 mph 1003.6mb 46f 34f
11:00 10 15 mph 1003.5mb 46f 34f
10:54 13 15 mph 1003.5mb 46f 34f
10:48 11 15 mph 1003.5mb 46f 34f
10:42 11 15 mph 1003.6mb 46f 34f
10:36 13 17 mph 1003.6mb 46f 34f
10:24 11 17 mph 1003.6mb 46f 34f
10:18 13 21 mph 1003.6mb 46f 34f
10:12 11 18 mph 1003.5mb 46f 34f
10:06 11 17 mph 1003.6mb 46f 34f
10:00 8 15 mph 1003.6mb 46f 34f
9:54 10 16 mph 1003.7mb 46f 34f
9:48 11 18 mph 1003.8mb 46f 34f
9:42 9 14 mph 1003.8mb 46f 34f
9:36 10 13 mph 1003.8mb 46f 34f
9:30 8 16 mph 1003.8mb 46f 34f
9:24 9 15 mph 1003.9mb 46f 34f
9:18 10 14 mph 1004mb 46f 35f
9:12 10 15 mph 1004.1mb 46f 35f
9:06 9 14 mph 1004mb 46f 35f
9:00 10 15 mph 1004.1mb 46f 35f
8:54 9 14 mph 1004mb 46f 35f
8:48 10 16 mph 1004mb 46f 35f
8:42 8 16 mph 1004mb 46f 35f
8:36 10 16 mph 1004mb 46f 35f
8:24 11 16 mph 1003.9mb 46f 35f
8:18 13 18 mph 1003.9mb 46f 36f
8:12 13 15 mph 1004mb 46f 36f
8:00 13 17 mph 1004mb 46f 36f
7:54 15 20 mph 1004mb 46f 36f
7:48 13 17 mph 1004.1mb 46f 36f
7:42 11 17 mph 1004mb 46f 37f
7:36 9 17 mph 1004mb 46f 37f
7:30 11 15 mph 1004mb 46f 37f
7:24 10 14 mph 1004mb 46f 37f
7:18 7 11 mph 1004mb 46f 37f
7:12 8 11 mph 1004.1mb 46f 37f
7:06 8 10 mph 1004.1mb 46f 37f
7:00 7 11 mph 1004.2mb 46f 37f
6:54 6 13 mph 1004.2mb 46f 37f
6:48 9 11 mph 1004.2mb 46f 37f
6:42 9 13 mph 1004.3mb 46f 37f
6:36 9 13 mph 1004.3mb 46f 37f
6:30 8 14 mph 1004.4mb 46f 37f
6:24 9 14 mph 1004.4mb 46f 37f
6:18 8 13 mph 1004.3mb 46f 37f
6:12 8 13 mph 1004.3mb 46f 37f
6:06 10 14 mph 1004.2mb 46f 37f
6:00 10 14 mph 1004.2mb 46f 37f
5:54 9 13 mph 1004.2mb 46f 37f
5:48 10 14 mph 1004.2mb 46f 37f
5:42 9 11 mph 1004.3mb 46f 37f
5:36 8 11 mph 1004.2mb 46f 37f
5:30 6 8 mph 1004.1mb 46f 36f
5:18 6 7 mph 1004.1mb 46f 36f
5:12 5 6 mph 1004.2mb 46f 36f
5:06 5 6 mph 1004.1mb 46f 37f
5:00 5 6 mph 1004.1mb 46f 37f
4:54 5 6 mph 1004.1mb 46f 37f
4:48 3 5 mph 1004.2mb 46f 37f
4:42 5 6 mph 1004.2mb 46f 37f
4:36 3 5 mph 1004.3mb 46f 37f
4:30 3 5 mph 1004.4mb 46f 37f
4:24 2 5 mph 1004.4mb 46f 38f
4:18  -  2 mph 1004.3mb 46f 38f
4:12 1 2 mph 1004.4mb 47f 38f
4:06 2 3 mph 1004.4mb 47f 38f
4:00 2 3 mph 1004.4mb 47f 38f
3:54 1 2 mph 1004.4mb 47f 39f
3:48 1 3 mph 1004.4mb 47f 39f
3:42 2 6 mph 1004.3mb 47f 39f
3:36 2 5 mph 1004.4mb 46f 39f
3:30 5 6 mph 1004.4mb 46f 39f
3:24 3 5 mph 1004.4mb 46f 39f
3:18 3 7 mph 1004.5mb 46f 39f
3:12 1 3 mph 1004.6mb 46f 40f
3:06 2 5 mph 1004.7mb 46f 40f
3:00 2 6 mph 1004.7mb 46f 40f
2:54 3 5 mph 1004.8mb 46f 40f
2:48 3 6 mph 1004.8mb 46f 40f
2:42 6 7 mph 1004.9mb 46f 40f
2:36 3 6 mph 1005.1mb 46f 41f
2:30  -  1 mph 1005.1mb 46f 41f
2:24  -  1 mph 1005.1mb 46f 41f
2:18 1 2 mph 1005mb 46f 41f
2:12 1 2 mph 1005.1mb 46f 41f
2:06 1 2 mph 1005.2mb 46f 41f
2:00  -  1 mph 1005.2mb 46f 41f
1:54  -  1 mph 1005.3mb 46f 41f
1:48  -  2 mph 1005.3mb 46f 40f
1:42 1 2 mph 1005.5mb 46f 40f
1:36 2 3 mph 1005.5mb 46f 40f
1:30 3
mph
1005.6mb 46f 40f
1:24 1 2 mph 1005.7mb 46f 40f
1:18 1 2 mph 1005.8mb 46f 39f
1:12 1 5 mph 1005.8mb 46f 40f
1:06 2 3 mph 1005.9mb 46f 39f
1:00 3
mph
1006.1mb 46f 39f
12:54 3
mph
1006.1mb 46f 39f
12:48 3 5 mph 1006.3mb 46f 39f
12:42 2 3 mph 1006.3mb 46f 39f
12:36 2 3 mph 1006.4mb 46f 39f
12:30 2 3 mph 1006.5mb 46f 39f
12:24 2
mph
1006.6mb 46f 39f
12:18 2 3 mph 1006.7mb 46f 39f
12:12 2 3 mph 1006.8mb 46f 39f
12:06 3 5 mph 1007mb 46f 39f
12:00  -  1 mph 1007.1mb 46f 40f
11:54  -  2 mph 1007.1mb 46f 40f
11:48 2 3 mph 1007.3mb 46f 39f
11:42 2 3 mph 1007.4mb 46f 39f
11:36 1 2 mph 1007.5mb 46f 40f
11:30  -  2 mph 1007.7mb 46f 40f
11:24  -  1 mph 1007.8mb 46f 40f
11:18 1 2 mph 1008mb 46f 40f
11:12 2 3 mph 1008.1mb 46f 39f
11:06 1 3 mph 1008.2mb 46f 39f
11:00 1 2 mph 1008.3mb 45f 39f
10:54 1 2 mph 1008.4mb 45f 39f
10:48 1
mph
1008.5mb 46f 39f
10:42  -  1 mph 1008.7mb 46f 39f
10:36  -  2 mph 1008.8mb 46f 40f
10:30  -  1 mph 1008.9mb 46f 39f
10:24  -  1 mph 1009.1mb 45f 39f
10:18  -  2 mph 1009.2mb 45f 38f
10:12  -  2 mph 1009.3mb 45f 38f
10:06 3 5 mph 1009.5mb 46f 38f
10:00 5 6 mph 1009.5mb 46f 38f
9:54 3 5 mph 1009.5mb 45f 38f
9:48 3
mph
1009.6mb 45f 38f
9:42 2 5 mph 1009.8mb 45f 38f
9:36 3 5 mph 1009.8mb 46f 38f
9:30 3 5 mph 1009.9mb 46f 38f
9:24 2
mph
1009.9mb 45f 38f
9:18 1 2 mph 1009.9mb 45f 38f
9:12  -  1 mph 1009.9mb 45f 38f
9:06  -  mph 1009.9mb 46f 38f
9:00  -  2 mph 1010.1mb 46f 38f
8:54 2
mph
1010.1mb 46f 38f
8:48  -  2 mph 1010.2mb 46f 39f
8:42 1 2 mph 1010.2mb 45f 38f
8:36  -  1 mph 1010.2mb 45f 38f
8:30 1 2 mph 1010.2mb 45f 37f
8:24 2 3 mph 1010.2mb 45f 36f
8:18  -  mph 1010.2mb 46f 36f
8:12  -  2 mph 1010.3mb 46f 35f
8:06 2 3 mph 1010.4mb 46f 35f
8:00 3 5 mph 1010.4mb 46f 35f
7:54 5 7 mph 1010.5mb 46f 34f
7:48 3 7 mph 1010.6mb 46f 34f
7:42 6 7 mph 1010.6mb 46f 35f
7:36 6 9 mph 1010.7mb 46f 34f
7:30 6 9 mph 1010.8mb 46f 35f
7:24 7 9 mph 1010.8mb 45f 34f
7:18 8 9 mph 1010.9mb 45f 34f
7:12 7 8 mph 1010.8mb 45f 34f
7:06 7 8 mph 1010.9mb 45f 35f
7:00 5 6 mph 1010.9mb 45f 34f
6:54 5 6 mph 1010.9mb 45f 34f
6:48 5 6 mph 1010.9mb 45f 35f
6:42 5 6 mph 1011mb 45f 34f
6:36 5 6 mph 1011mb 45f 34f
6:30 5 6 mph 1010.9mb 45f 34f
6:24 5 7 mph 1010.9mb 45f 34f
6:18 6
mph
1011mb 46f 34f
6:12 5 6 mph 1010.9mb 45f 34f
6:06 5 6 mph 1010.9mb 45f 34f
6:00 5 6 mph 1011.1mb 46f 34f
5:54 6 7 mph 1011mb 46f 34f
5:48 7 8 mph 1011mb 46f 34f
5:42 7 8 mph 1011.1mb 46f 34f
5:36 8 9 mph 1011.1mb 46f 34f
5:30 7 9 mph 1011.1mb 46f 34f
5:24 7 8 mph 1011.2mb 46f 34f
5:18 6 7 mph 1011.2mb 46f 34f
5:12 6 8 mph 1011.2mb 46f 34f
5:06 7 8 mph 1011.3mb 46f 34f
5:00 7 8 mph 1011.4mb 46f 34f
4:54 7 8 mph 1011.4mb 46f 34f
4:48 8 10 mph 1011.4mb 46f 34f
4:42 8 10 mph 1011.5mb 46f 34f
4:36 8 11 mph 1011.4mb 46f 34f
4:30 9 10 mph 1011.5mb 46f 34f
4:24 8 9 mph 1011.4mb 46f 34f
4:18 9 10 mph 1011.5mb 45f 34f
4:12 8 9 mph 1011.5mb 46f 35f
4:06 7 8 mph 1011.5mb 45f 35f
4:00 7 9 mph 1011.5mb 46f 35f
3:54 7
mph
1011.5mb 46f 35f
3:48 5 6 mph 1011.4mb 46f 35f
3:42 5 8 mph 1011.5mb 46f 35f
3:36 8
mph
1011.8mb 46f 35f
3:30 7 8 mph 1011.5mb 46f 35f
3:24 8 9 mph 1011.6mb 46f 35f
3:18 6 8 mph 1011.6mb 46f 35f
3:12 7 9 mph 1011.5mb 46f 35f
3:06 8 9 mph 1011.8mb 46f 35f
3:00 8 9 mph 1011.7mb 46f 35f
2:54 8 9 mph 1011.6mb 46f 35f
2:48 7 8 mph 1011.9mb 46f 35f
2:42 6 8 mph 1011.8mb 46f 35f
2:36 7 9 mph 1011.9mb 46f 35f
2:30 7 10 mph 1011.9mb 46f 35f
2:24 9 10 mph 1011.9mb 46f 35f
2:18 8 9 mph 1011.9mb 46f 35f
2:12 7 9 mph 1011.8mb 46f 35f
2:06 8 9 mph 1011.9mb 45f 35f
2:00 7 8 mph 1011.9mb 45f 35f
1:54 7
mph
1011.9mb 45f 35f
1:48 6
mph
1011.9mb 45f -
1:42 5 6 mph 1012mb 45f -
1:36 5 6 mph 1012mb 45f -
1:30 3 7 mph 1011.8mb 45f 35f
1:24 6 8 mph 1011.7mb 45f 35f
1:18 7 9 mph 1011.8mb 45f 35f
1:12 8 9 mph 1011.9mb 46f 35f
1:06 8 9 mph 1011.9mb 46f 36f
1:00 9
mph
1011.9mb 46f 36f
12:54 8
mph
1012mb 46f 36f
12:48 7 8 mph 1011.9mb 46f -
12:42 7 9 mph 1012.1mb 46f -
12:36 7 8 mph 1012.1mb 46f -
12:30 6 8 mph 1012.3mb 46f 37f
12:24 6 8 mph 1012.2mb 46f 37f
12:18 6 8 mph 1012.1mb 46f 37f
12:12 7 10 mph 1012.3mb 46f 37f
12:06 8 10 mph 1012.3mb 46f 37f
12:00 7 9 mph 1012.3mb 46f 37f
mer. 12/07 11:54 6 7 mph 1012.3mb 46f 37f
11:48 6
mph
1012.4mb 46f 36f
11:42 5 7 mph 1012.5mb 46f 36f
11:36 2 5 mph 1012.6mb 46f 37f
11:30 3 6 mph 1012.6mb 46f 36f
11:24 5 6 mph 1012.8mb 45f 37f
11:18 5 7 mph 1012.8mb 45f 36f
11:12 5 6 mph 1012.9mb 45f 36f
11:06 2 3 mph 1012.8mb 45f 36f
11:00 1 2 mph 1012.9mb 45f 35f
10:54 1 2 mph 1013.1mb 45f 35f
10:48  -  2 mph 1013.1mb 45f 35f
10:42 1 2 mph 1013.2mb 45f 35f
10:36 1 2 mph 1013.2mb 45f 35f
10:30 1 3 mph 1013.1mb 45f 35f
10:24 2 5 mph 1013.1mb 45f 35f
10:18 3 6 mph 1013mb 45f 35f
10:12 5 6 mph 1013mb 45f 35f
10:06 5 6 mph 1013mb 45f 36f
10:00 3 5 mph 1013mb 45f 36f
9:54  -  2 mph 1013.1mb 45f 36f
9:48 2 3 mph 1013.2mb 45f 36f
9:42 2 3 mph 1013.2mb 45f 36f
9:36 1 3 mph 1013.2mb 45f 36f
9:30 2 3 mph 1013.3mb 45f 35f
9:24 2 3 mph 1013.4mb 45f 36f
9:18 3 6 mph 1013.4mb 46f 36f
9:12 5 7 mph 1013.4mb 46f 36f
9:06 3 5 mph 1013.4mb 45f 36f
9:00 5 6 mph 1013.4mb 45f 36f
8:54 5 6 mph 1013.4mb 45f 36f
8:48 6 7 mph 1013.5mb 45f 36f
8:42 3 6 mph 1013.5mb 45f 36f
8:36 5 6 mph 1013.7mb 45f 36f
8:30 5 6 mph 1013.6mb 45f 36f
8:24 3 5 mph 1013.6mb 45f 36f
8:18 1 3 mph 1013.5mb 45f 36f
8:12 3
mph
1013.6mb 45f 36f
8:06 2 3 mph 1013.6mb 45f 36f
8:00 1 2 mph 1013.7mb 45f 36f
7:54 1 2 mph 1013.8mb 45f 35f
7:48 2 3 mph 1013.9mb 45f 35f
7:42  -  3 mph 1013.8mb 45f 35f
7:36 1 3 mph 1013.8mb 45f 35f
7:30 2 3 mph 1013.8mb 45f 35f
7:24  -  2 mph 1013.7mb 45f 35f
7:18 2
mph
1013.7mb 45f 35f
7:12 2
mph
1013.8mb 45f 35f
7:06  -  1 mph 1013.7mb 45f 35f
7:00 2 3 mph 1013.7mb 45f 35f
6:54 1 2 mph 1013.7mb 45f 35f
6:48  -  2 mph 1013.8mb 45f 35f
6:42  -  1 mph 1013.8mb 45f 35f
6:36  -  2 mph 1013.8mb 45f 35f
6:30 1 2 mph 1013.9mb 45f 35f
6:24  -  2 mph 1013.9mb 45f 34f
6:18 1 2 mph 1014.1mb 45f 34f
6:12 1 2 mph 1014.1mb 45f 34f
6:06 2
mph
1014.2mb 45f 34f
6:00 1
mph
1014.3mb 45f 35f
5:54  -  mph 1014.2mb 45f 35f
5:48  -  1 mph 1014.2mb 45f 35f
5:42  -  1 mph 1014.2mb 45f 35f
5:36  -  mph 1014.1mb 45f 35f
5:30  -  2 mph 1014mb 45f 34f
5:24 1 2 mph 1014mb 45f 34f
5:18  -  1 mph 1014mb 45f 34f
5:12 1 2 mph 1014.1mb 45f 34f
5:06  -  1 mph 1014mb 45f 34f
5:00 2 3 mph 1014mb 45f 34f
4:54 2
mph
1014mb 45f 34f
4:48 2 3 mph 1013.9mb 45f 33f
4:42 2 3 mph 1013.8mb 46f 33f
4:36 2 3 mph 1013.8mb 46f 33f
4:30 3
mph
1013.6mb 46f 33f
4:24 3 5 mph 1013.7mb 46f 33f
4:18 3 5 mph 1013.6mb 46f 33f
4:12 2 6 mph 1013.6mb 46f 33f
4:06 3 6 mph 1013.6mb 46f 33f
4:00 5 7 mph 1013.5mb 46f 33f
3:54 3 5 mph 1013.4mb 46f 32f
3:48 3
mph
1013.5mb 46f 32f
3:42 3 5 mph 1013.6mb 46f 32f
3:36 2 5 mph 1013.7mb 46f 32f
3:30 3
mph
1013.5mb 46f 32f
3:24 2
mph
1013.4mb 46f 32f
3:18 2
mph
1013.4mb 46f 32f
3:12 1 2 mph 1013.4mb 46f 32f
3:06 1 2 mph 1013.4mb 46f 32f
3:00 1 2 mph 1013.4mb 46f 32f
2:54 1 2 mph 1013.6mb 47f 32f
2:48  -  2 mph 1013.5mb 46f 32f
2:42  -  3 mph 1013.5mb 46f 32f
2:36 2 3 mph 1013.7mb 46f 32f
2:30 3 5 mph 1013.6mb 46f 31f
2:24 5 6 mph 1013.6mb 46f 31f
2:18 5 6 mph 1013.9mb 46f 32f
2:12 5 6 mph 1013.9mb 46f 31f
2:06 5
mph
1013.8mb 46f 31f